Regional Weather Roundup
Issued by NWS

Home | Current Version | Previous Version | Text Only | Print | Product List | Glossary On
Versions: 1 2 3 4 5 6 7 8 9 10 11 12 13 14 15 16 17 18 19 20 21 22 23 24 25 26 27 28 29 30 31 32 33 34 35 36 37 38 39 40 41 42 43 44 45 46 47 48 49 50
604
ASUS46 KSEW 052010
RWRWA

WASHINGTON REGIONAL WEATHER ROUNDUP
NATIONAL WEATHER SERVICE SEATTLE WA
100 PM PDT THU MAY 05 2016

NOTE:"FAIR" INDICATES FEW OR NO CLOUDS BELOW 12,000 FEET WITH NO
SIGNIFICANT WEATHER AND/OR OBSTRUCTIONS TO VISIBILITY.

WAZ505-507>509-052100-
SEATTLE, TACOMA, EVERETT, AND VICINITY

CITY           SKY/WX    TMP DP  RH WIND       PRES   REMARKS
EVERETT        CLOUDY    58  47  66 VRB6      30.06S
BOEING FIELD   PTSUNNY   64  47  53 VRB7      30.04S
RENTON         PTSUNNY   64  47  53 NW12      30.03F
SEATAC AIRPORT PTSUNNY   64  44  48 NE8       30.04F
JBLM-MCCHORD   MOSUNNY   62  46  54 N12       30.03F
PUYALLUP       NOT AVBL
BREMERTON      MOSUNNY   63  46  55 E6G17     30.06S
JBLM-FT LEWIS  MOSUNNY   62  44  50 N13       30.03F
TACOMA NARROWS MOSUNNY   60  43  53 N10       30.04S
$$

WAZ001-503-506-510-514-515-052100-
NORTH INTERIOR

CITY           SKY/WX    TMP DP  RH WIND       PRES   REMARKS
BELLINGHAM     MOSUNNY   63  51  65 W8        30.04S
FRIDAY HARBOR  MOSUNNY   61  46  57 N12G20    30.07S
EASTSOUND      SUNNY     55  48  76 N8        30.06S
PORT ANGELES   SUNNY     63  40  42 VRB6      30.06F
EDIZ HOOK      FAIR      58  47  65 SE6       30.06F
PORT TOWNSEND  CLOUDY    59  46  63 NW8       30.06S
NAS WHIDBEY    PTSUNNY   60  49  66 N9        30.09F
ARLINGTON      PTSUNNY   59  45  58 W10       30.06S
BURLINGTON     NOT AVBL
$$

WAZ020-022-039-040-504-511-512-052100-
SOUTHWEST INTERIOR

CITY           SKY/WX    TMP DP  RH WIND       PRES   REMARKS
SHELTON        MOSUNNY   64  46  52 CALM      30.00F
OLYMPIA        MOSUNNY   65  43  44 NE9       30.03F
CHEHALIS       FAIR      66  41  39 N9G21     30.01F
KELSO          SUNNY     64  45  48 NW10G18   30.02F
VANCOUVER      CLOUDY    62  47  57 VRB5      29.98F
SCAPPOOSE, OR  SUNNY     66  46  48 N9        29.97F
PORTLAND, OR   PTSUNNY   64  47  53 VRB3      29.99S
$$

WAZ021-516-517-052100-
WASHINGTON COAST

CITY           SKY/WX    TMP DP  RH WIND       PRES   REMARKS
FORKS          SUNNY     61  50  67 W9        30.04S
HOQUIAM        SUNNY     57  50  77 SW13      30.04F HAZE
ASTORIA, OR    SUNNY     61  48  62 NW13      30.03F
$$

WAZ019-023-024-040-518-519-052100-
CASCADE MOUNTAINS AND COLUMBIA GORGE

CITY           SKY/WX    TMP DP  RH WIND       PRES   REMARKS
STAMPEDE PASS  CLOUDY    45  42  89 VRB3      30.02R
TROUTDALE, OR  CLOUDY    62  49  62 SE3       29.99S
THE DALLES, OR PTSUNNY   70  51  51 NW10      29.90F
$$

WAZ026-027-041>044-520-521-052100-
EAST SLOPES

CITY           SKY/WX    TMP DP  RH WIND       PRES   REMARKS
OMAK           CLOUDY    58  47  66 N17       30.00S
WENATCHEE      CLOUDY    59  51  75 NW7       29.97R
ELLENSBURG     CLOUDY    68  50  52 W8        29.95S
YAKIMA         PTSUNNY   74  48  39 N9G17     29.91F
$$

WAZ028-034-035-052100-
COLUMBIA BASIN

CITY           SKY/WX    TMP DP  RH WIND       PRES   REMARKS
EPHRATA        CLOUDY    69  52  54 N14       29.93S
MOSES LAKE     CLOUDY    69  53  56 N12       29.92F
PASCO          CLOUDY    70  54  56 NW5       29.90S
HERMISTON, OR  CLOUDY    68  54  60 W5        29.89F
$$

WAZ036>038-052100-
NORTHEAST WASHINGTON

CITY           SKY/WX    TMP DP  RH WIND       PRES   REMARKS
SPOKANE GEIGER PTSUNNY   67  50  54 N7        29.93F
SPOKANE FELTS  PTSUNNY   69  52  54 NW6       29.93F
FAIRCHILD AFB  MOSUNNY   65  52  62 E5        29.93F
COEURDALENE,ID SUNNY     70  50  49 NW3       29.89F
DEER PARK      PTSUNNY   67  50  54 VRB5      29.94F
$$

WAZ029>033-052100-
SOUTHEAST WASHINGTON

CITY           SKY/WX    TMP DP  RH WIND       PRES   REMARKS
PULLMAN        MOSUNNY   68  50  52 NW10      29.93S
LEWISTON, ID   MOSUNNY   75  52  44 VRB6      29.87S
WALLA WALLA    PTSUNNY   67  55  65 W5        29.90F
PENDLETON, OR  CLOUDY    65  51  60 VRB5      29.90F
$$




USA.gov is the U.S. government's official web portal to all federal, state and local government web resources and services.